Regional Weather Roundup
Issued by NWS

Home | Current Version | Previous Version | Graphics & Text | Print | Product List | Glossary On
Versions: 1 2 3 4 5 6 7 8 9 10 11 12 13 14 15 16 17 18 19 20 21 22 23 24 25 26 27 28 29 30 31 32 33 34 35 36 37 38 39 40 41 42 43 44 45 46 47 48 49 50
000
ASUS43 KBIS 272202
RWRND

NORTH DAKOTA REGIONAL WEATHER ROUNDUP
NATIONAL WEATHER SERVICE BISMARCK ND
500 PM CDT THU APR 27 2017

NOTE: "FAIR" INDICATES FEW OR NO CLOUDS BELOW 12,000 FEET WITH NO
SIGNIFICANT WEATHER AND/OR OBSTRUCTIONS TO VISIBILITY.


NDZ001>003-009>011-017-272300-
NORTHWEST NORTH DAKOTA

CITY           SKY/WX    TMP DP  RH WIND       PRES   REMARKS
WILLISTON      FAIR      54  18  24 SE8G17    29.73S
MINOT          FAIR      53  18  25 NE14G23   29.72F
MINOT AFB      SUNNY     50  19  28 N12G21    29.72S
$$

NDZ018>021-031>035-040>046-272300-
SOUTHWEST NORTH DAKOTA

CITY           SKY/WX    TMP DP  RH WIND       PRES   REMARKS
BISMARCK       FAIR      53  27  36 E13       29.71S
DICKINSON      FAIR      49  21  33 NE12G21   29.67S
GARRISON         N/A     50  18  28 NE8       29.72R
HETTINGER ARPT SUNNY     50  25  37 VRB7      29.68S
$$

NDZ004>008-012>016-024-026-027-054-272300-
NORTHEAST NORTH DAKOTA

CITY           SKY/WX    TMP DP  RH WIND       PRES   REMARKS
GRAND FORKS    CLOUDY    46  32  58 N16G24    29.65S
GRND FRKS AFB  CLOUDY    44  31  59 N20G25    29.65F
DEVILS LAKE    PTSUNNY   48  28  46 N21G28    29.70R
$$

NDZ022-023-025-028>030-036>039-047>053-272300-
SOUTHEAST NORTH DAKOTA

CITY           SKY/WX    TMP DP  RH WIND       PRES   REMARKS
FARGO          SUNNY     39  28  64 NW8       29.67F
JAMESTOWN      PTSUNNY   48  30  49 N18       29.66F
$$





USA.gov is the U.S. government's official web portal to all federal, state and local government web resources and services.